Find Starlink 33634

NORAD ID: 63377 Int'l Des: 2025-063 Owner: SPXS Country: US Constellation: starlink operational
LEOCIRCULAR

Live Position

Loading 3D Globe...

About Starlink 33634

Description loading...

Upcoming Passes

Passes for default location (London). Set your location on the main map for personalized predictions.

Altitude History

Loading altitude history...

Two-Line Element Set

1 63377U 25063Q 26121.40970794 .00024935 00000-0 85121-3 0 9997
2 63377 53.1573 167.4013 0001154 81.5305 278.5827 15.30198261 62831
Epoch: May 1, 2026 • Age: 17 hours

Current Status

Altitude 485.8 km
Velocity 7.62 km/s
Sub-Earth Point -32.86°S, 128.08°W
Launch Date Mar 26, 2025
Age 1 years
Type internet

Technical Details

Classification Payload
Mass 575.00 kg
Dry Mass 530.00 kg
Total Mass 575.00 kg
Length 0.30 m
Diameter 4.10 m
Span 29.00 m
Shape Box + pan
Manufacturer SPXS
Bus Type Starlink V2MO
Phase Status In Orbit
Owner/State SPXS/US

Most Searched